Hourly Data Report for April 23, 2003

SHERBROOKE A
QUEBEC

45°26'00.000" N
71°41'00.000" W
241.40 m
7028124
71610
YSC

Download Data

Hourly Data (April 2003)
Hourly Data Report for April 23, 2003
TIME
LST
Temp Definition
°C
Dew Point Definition
°C
Rel Hum Definition
%
Precip. Amount Definition
mm

Wind Dir Definition
10's deg

Wind Spd Definition
km/h
Visibility Definition
km
Stn Press Definition
kPa
Hmdx Definition


Wind Chill Definition


Weather Definition


00:00 7.0 6.7 98   4 4 8.0 97.45      
01:00 6.9 6.7 99     0 2.4 97.42      
02:00 6.9 6.6 98     0 2.3 97.40      
03:00 6.8 6.7 99     0 1.1 97.38      
04:00 7.0 6.8 99   24 4 2.1 97.35      
05:00 6.0 5.7 98   27 11 8.0 97.39      
06:00 5.2 4.6 96   26 13 15.0 97.46      
07:00 4.8 4.4 97   27 11 12.9 97.50     Drizzle
08:00 4.8 4.2 96   26 11 12.9 97.52     Drizzle
09:00 4.2 3.4 95   25 17 4.8 97.59     Rain, Drizzle, Fog
10:00 4.1 3.4 95   26 13 4.8 97.62     Rain, Drizzle, Fog
11:00 4.3 3.4 94   26 19 16.1 97.61     Drizzle
12:00 3.5 2.3 92   25 17 16.1 97.62     Drizzle
13:00 3.7 2.1 89   26 13 19.3 97.65     Cloudy
14:00 2.6 1.1 90   26 19 19.3 97.67     Rain, Snow
15:00 2.4 0.9 90   26 15 19.3 97.68     Snow
16:00 1.1 0.3 94   25 7 4.0 97.72     Snow
17:00 0.9 0.4 96   23 9 11.3 97.71      
18:00 0.7 0.2 96   23 7 8.0 97.74      
19:00 0.6 0.1 96   21 7 4.0 97.75     Rain
20:00 0.2 -0.2 97   22 9 1.4 97.76      
21:00 0.2 -0.2 97   22 9 2.4 97.74      
22:00 0.2 -0.2 97   22 9 1.6 97.73      
23:00 0.2 -0.2 97   21 9 2.7 97.72      

Notes on Data Quality.

Legend

  • E = Estimated
  • M = Missing
  • NA = Not Available*
  • [empty] = Indicates an unobserved value
Date modified: